Wetbulb
79.11 77.74 77.17 77.32 75.03 73.38 72.33 72.21 74.11 75.31 73.72 72.80 72.34 72.15 70.94 69.29 69.14 69.98 69.18 69.51 69.89 67.81
79.28 78.51 77.80 78.20 77.34 74.85 75.48 72.44 74.40 74.34 73.11 71.82 72.18 71.10 70.73 68.60 69.25 69.05 69.26 68.90 69.35 68.73
78.09 78.50 78.37 78.20 77.67 76.96 75.93 75.33 73.91 73.33 71.76 71.47 71.11 70.38 70.64 69.34 69.70 69.13 67.12 66.50 68.11 69.05
77.48 77.76 78.34 78.01 77.87 77.53 76.80 75.01 73.57 72.86 71.27 71.03 70.22 70.24 70.12 69.98 68.84 68.08 68.15 68.02 68.62 69.07
77.58 77.66 77.59 78.12 77.07 76.03 76.34 73.96 73.08 71.92 70.97 71.20 70.35 70.30 70.01 68.97 68.24 67.67 67.20 67.77 68.62 68.82
76.69 77.08 77.34 77.45 76.60 76.58 74.18 71.50 70.11 69.81 70.17 70.62 69.90 70.18 70.45 70.14 69.50 68.42 67.99 68.44 68.46 68.53
76.85 76.75 76.94 76.92 73.70 71.62 71.82 70.07 68.21 68.70 69.08 69.00 70.37 70.29 70.17 69.71 69.74 68.52 67.61 68.70 68.74 68.97
77.77 77.54 76.61 75.50 73.32 70.90 70.46 69.93 66.13 67.93 67.02 68.95 69.78 67.99 69.80 69.42 68.53 68.13 68.29 69.05 69.18 69.64
77.31 76.97 75.94 74.44 72.42 71.49 70.15 68.83 67.97 66.63 66.52 67.10 67.94 63.84 63.65 67.27 68.52 68.80 68.91 68.58 69.69 70.18
76.88 75.54 74.43 73.21 72.11 70.52 69.46 68.83 68.72 68.43 67.61 67.47 69.23 62.12 62.14 63.86 67.96 68.57 68.96 69.75 69.55 68.30
75.70 74.48 73.68 72.79 71.33 70.52 68.68 68.37 69.07 69.56 68.97 68.49 69.23 62.07 60.92 63.45 68.65 69.43 70.10 69.52 68.65 67.86
74.73 73.53 71.76 71.18 71.03 71.40 69.52 69.02 69.75 70.24 69.77 69.30 69.64 58.71 58.78 63.00 68.64 68.80 68.78 67.03 67.16 66.44
74.16 73.60 72.01 71.62 71.80 71.13 70.69 69.70 69.12 69.29 69.78 66.62 70.14 57.54 57.05 61.34 67.98 67.74 66.14 64.72 65.74 60.06
73.78 73.40 73.39 72.61 71.44 71.01 70.03 69.42 69.87 69.05 69.72 69.46 66.45 67.98 55.67 56.01 66.82 65.47 64.60 64.96 67.10 66.58
MSLP
1012.05 1012.45 1012.81 1013.07 1013.17 1013.64 1013.90 1014.36 1015.01 1016.12 1016.35 1016.56 1016.73 1017.02 1017.35 1017.60 1017.92 1018.04 1018.29 1018.30 1018.43 1017.98
1011.39 1011.87 1011.97 1012.52 1013.21 1013.60 1014.01 1014.26 1014.98 1015.44 1016.20 1016.46 1016.77 1017.09 1017.38 1017.26 1017.51 1017.72 1017.94 1017.82 1017.91 1018.00
1010.45 1011.22 1011.82 1012.04 1012.41 1012.78 1013.39 1014.58 1015.04 1015.62 1015.69 1015.94 1016.70 1017.29 1017.47 1017.08 1017.09 1017.38 1017.38 1017.28 1017.34 1017.70
1009.49 1010.25 1010.93 1011.37 1012.42 1013.38 1013.66 1014.52 1015.21 1015.82 1015.97 1015.99 1016.02 1016.94 1017.33 1017.14 1016.84 1016.88 1017.16 1017.26 1017.14 1017.18
1008.72 1009.34 1009.88 1010.77 1011.45 1012.02 1013.40 1013.52 1014.23 1015.41 1016.21 1016.40 1016.05 1016.38 1016.88 1016.83 1016.26 1016.31 1016.53 1016.62 1016.75 1016.62
1007.64 1008.18 1008.97 1010.10 1011.12 1011.75 1012.68 1012.86 1013.60 1012.65 1014.33 1015.30 1015.66 1015.86 1016.06 1016.23 1016.05 1015.92 1016.02 1016.13 1016.18 1016.22
1006.64 1007.51 1008.64 1009.53 1010.64 1011.22 1011.81 1012.15 1012.37 1011.77 1012.84 1013.85 1015.11 1015.33 1015.40 1015.42 1015.45 1015.47 1015.46 1015.70 1015.76 1015.82
1006.14 1007.13 1008.34 1009.17 1009.83 1010.24 1010.74 1011.31 1011.26 1011.28 1012.23 1013.16 1014.01 1014.18 1014.65 1014.72 1014.76 1014.97 1014.94 1014.99 1015.13 1015.26
1005.70 1006.70 1007.51 1008.39 1009.29 1009.48 1009.76 1009.91 1010.55 1010.98 1011.68 1012.45 1013.03 1013.02 1013.42 1014.05 1014.11 1014.31 1014.34 1014.34 1014.62 1015.03
1005.16 1006.09 1007.06 1008.07 1008.67 1008.87 1009.18 1009.89 1010.06 1010.59 1011.29 1011.86 1012.22 1012.52 1013.00 1013.49 1013.85 1013.86 1013.67 1013.98 1014.47 1014.78
1004.89 1005.82 1006.58 1007.34 1007.99 1008.40 1008.95 1009.53 1010.06 1010.54 1011.06 1011.41 1011.61 1011.96 1012.72 1013.18 1013.53 1013.65 1013.37 1013.51 1013.72 1013.92
1004.66 1005.58 1006.28 1006.84 1007.21 1007.58 1008.03 1008.84 1009.12 1009.72 1010.12 1010.72 1011.08 1011.50 1011.83 1012.64 1012.57 1012.57 1012.93 1013.12 1012.93 1012.93
1004.27 1004.82 1005.51 1006.11 1006.76 1007.65 1008.11 1007.85 1008.40 1008.98 1009.52 1009.72 1010.27 1010.80 1011.15 1011.67 1011.55 1011.93 1012.27 1012.46 1012.56 1012.77
1003.84 1004.43 1004.89 1005.64 1005.96 1007.54 1008.30 1008.30 1008.64 1008.82 1009.13 1009.36 1010.11 1010.11 1010.89 1011.30 1011.28 1011.06 1011.71 1011.70 1011.96 1012.25
Wind_Speed
17 12 12 12 9 9 8 7 7 9 8 8 7 6 6 6 6 5 5 5 5 7
15 16 12 11 11 8 7 6 7 10 8 8 8 7 8 7 7 5 7 7 7 8
16 15 14 13 13 13 10 8 8 10 9 10 8 8 9 8 8 7 6 6 6 7
16 16 15 15 13 10 9 9 9 8 8 9 10 10 10 10 8 7 8 9 8 8
16 16 17 14 14 15 11 13 12 7 7 7 8 10 12 12 10 10 10 10 9 9
18 19 17 15 15 13 15 12 12 15 12 10 8 12 13 13 12 10 10 10 10 10
18 17 15 14 16 15 16 16 13 13 12 10 13 12 13 14 13 11 11 11 10 10
14 14 14 15 18 16 17 17 14 13 11 10 13 10 14 14 13 12 12 12 12 12
13 14 15 16 18 18 18 18 13 12 13 14 12 15 11 12 12 13 12 10 10 7
14 16 16 16 17 18 17 13 12 10 12 17 16 10 14 12 12 11 11 8 8 8
14 15 15 15 18 18 16 16 12 11 13 16 14 9 11 12 12 12 10 8 5 5
14 14 14 15 17 17 17 16 14 10 12 15 14 13 16 12 13 13 12 7 7 6
14 15 16 15 14 12 13 14 12 11 11 13 12 16 18 17 11 10 8 5 5 5
14 13 11 12 10 10 11 8 10 11 14 10 10 11 15 14 9 8 5 6 5 4
Wind_Direction
211 215 217 214 231 209 220 205 194 199 202 218 203 207 193 202 231 209 228 242 271 302
208 218 214 223 202 208 219 212 192 192 203 213 213 210 198 230 202 222 226 238 242 258
207 206 210 209 203 212 200 219 181 200 194 190 204 222 217 226 211 227 242 241 243 256
205 201 204 207 204 211 181 183 193 208 208 203 193 218 227 247 261 231 237 245 247 249
204 203 202 201 198 172 195 161 179 171 224 248 228 223 230 236 239 226 235 236 242 247
205 205 205 202 184 178 181 162 176 152 192 222 232 235 233 237 240 238 243 243 242 249
208 207 203 199 172 175 178 165 174 178 176 202 239 230 235 235 235 235 235 244 249 252
206 206 198 190 190 174 173 179 185 177 178 202 225 219 231 235 233 231 234 242 246 244
192 197 193 193 190 186 187 189 193 197 198 206 223 219 204 229 229 232 239 249 266 281
193 197 195 197 199 196 197 205 219 204 203 218 227 210 203 205 239 251 245 250 265 285
191 194 198 195 204 203 203 203 206 213 221 226 229 186 146 161 223 238 238 232 230 287
189 195 197 201 204 205 201 208 215 228 234 230 233 169 173 185 223 224 227 212 225 219
185 191 191 202 203 205 219 209 216 236 227 224 229 182 184 195 220 216 238 222 246 168
184 191 187 195 172 197 211 211 223 232 230 218 211 201 195 206 216 229 219 246 221 174